214  
ASUS43 KDMX 090006  
RWRIA  
 
WEATHER ROUNDUP FOR IOWA  
NATIONAL WEATHER SERVICE DES MOINES IA  
700 PM CDT MON AUG 08 2022  
 
NOTE: "FAIR" INDICATES FEW OR NO CLOUDS BELOW 12,000 FEET WITH NO  
SIGNIFICANT WEATHER AND/OR S TO VISIBILITY
.  
 
* - THESE STATIONS ARE NOT NWS STATIONS...THUS NOT UNDER NWS  
QUALITY CONTROL. THEY ALSO DO NOT REPORT WEATHER SUCH  
AS PRECIPITATION OR FOG.
 
 
IAZ001>003-012>014-020>022-031>034-043>046-090100-  
NORTHWEST IOWA  
 
CITY SKY/WX TMP DP RH WIND PRES REMARKS
 
CARROLL * SUNNY 73 61 64 N9 30.06R  
CHEROKEE * SUNNY 75 57 53 CALM 30.07F  
DENISON * SUNNY 73 64 73 N7 30.08R  
LE MARS * SUNNY 75 59 57 N6 30.06F  
MAURICE * FAIR 73 59 60 E5 30.06  
SHELDON * SUNNY 73 59 60 CALM 30.06F  
SIOUX CITY SUNNY 79 58 48 N3 30.06F HX 80  
6HR MIN TEMP: 74; 6HR MAX TEMP: 81;  
 
SPENCER SUNNY 77 57 50 N6 30.08S  
6HR MIN TEMP: 71; 6HR MAX TEMP: 78;  
 
STORM LAKE * SUNNY 72 61 68 N6 30.08F  

 
 
IAZ055>058-069>071-079>083-090>094-090100-  
SOUTHWEST IOWA  
 
CITY SKY/WX TMP DP RH WIND PRES REMARKS
 
ATLANTIC * SUNNY 75 64 69 N9 30.04R  
AUDUBON * PTSUNNY 75 61 60 N7 30.07R  
CLARINDA * SUNNY 79 61 53 N8 30.05R HX 80  
COUNCIL BLFS * SUNNY 75 57 53 N9 30.03  
CRESTON * SUNNY 77 59 53 NE8 30.04S  
HARLAN * SUNNY 75 64 69 N8 30.06S  
RED OAK * SUNNY 77 61 57 N10 30.04S  
SHENANDOAH * SUNNY 79 61 53 NE7 30.03R HX 80  

 
 
IAZ047>049-059>061-072>074-084-090100-  
CENTRAL IOWA  
 
CITY SKY/WX TMP DP RH WIND PRES REMARKS
 
AMES SUNNY 76 60 57 N12 30.04R  
6HR MIN TEMP: 75; 6HR MAX TEMP: 79;  
 
ANKENY * SUNNY 77 61 57 VRB7G14 30.04S  
BOONE * SUNNY 75 61 60 N10G16 30.07R  
CHARITON * SUNNY 77 63 61 NE8 30.03  
DES MOINES MOSUNNY 78 60 53 N10G18 30.03S  
6HR MIN TEMP: 75; 6HR MAX TEMP: 80;  
 
GRINNELL* SUNNY 77 62 58 N9 30.05R  
KNOXVILLE * MOSUNNY 79 59 50 N10 30.02S HX 80  
MARSHALLTOWN SUNNY 75 60 59 N12 30.03R  
6HR MIN TEMP: 74; 6HR MAX TEMP: 78;  
 
NEWTON * SUNNY 75 61 60 N14 30.03R  
PELLA * MOSUNNY 77 60 56 N7 30.03S  
PERRY * FAIR 78 59 51 N9 30.05R  

 
 
IAZ004>006-015-016-023>025-035-036-090100-  
NORTH CENTRAL IOWA  
 
CITY SKY/WX TMP DP RH WIND PRES REMARKS
 
ALGONA * SUNNY 73 61 64 N7 30.06S  
CLARION * MOSUNNY 73 61 64 N7 30.06S  
ESTHERVILLE SUNNY 73 59 61 N6 30.07F  
6HR MIN TEMP: 70; 6HR MAX TEMP: 75;  
 
FORT DODGE * SUNNY 74 58 57 N7 30.07S  
MASON CITY MOSUNNY 73 59 61 N10 30.07S  
6HR MIN TEMP: 71; 6HR MAX TEMP: 77;  
 
FOREST CITY * FAIR 72 57 60 N9 30.07S  
WEBSTER CITY * MOSUNNY 73 63 68 N10 30.04R  
IOWA FALLS * FAIR 75 62 62 N6 30.06S  

 
 
IAZ007>011-017>019-026>030-037>042-050>054-066-090100-  
NORTHEAST IOWA  
 
CITY SKY/WX TMP DP RH WIND PRES REMARKS
 
CEDAR RAPIDS PTSUNNY 74 62 66 N9 30.01R  
6HR MIN TEMP: 70; 6HR MAX TEMP: 76;  
 
CHARLES CITY * MOSUNNY 73 61 64 N9G15 30.05R  
CLINTON * CLOUDY 71 68 90 N5 30.02S  
DECORAH * MOSUNNY 72 63 73 N8 30.03R  
DUBUQUE PTSUNNY 73 63 70 NE6 30.03R  
6HR MIN TEMP: 68; 6HR MAX TEMP: 75;  
 
OELWEIN * MOSUNNY 72 61 68 N7 30.04R  
WATERLOO MOSUNNY 76 60 57 N10 30.02R  
6HR MIN TEMP: 72; 6HR MAX TEMP: 79;  
 

 
 
IAZ064-065-067-068-078-090100-  
EAST CENTRAL IOWA  
 
CITY SKY/WX TMP DP RH WIND PRES REMARKS
 
DAVENPORT CLOUDY 71 64 78 N5 30.03S  
6HR MIN TEMP: 71; 6HR MAX TEMP: 76;  
 
IOWA CITY PTSUNNY 74 61 63 NE3 30.03R  
6HR MIN TEMP: 74; 6HR MAX TEMP: 77;  
 
MT. PLEASANT * SUNNY 73 70 88 N12 30.01F  
MUSCATINE * CLOUDY 73 66 78 N5 30.02S  
QUAD CITIES CLOUDY 73 63 70 N5 30.01R  
6HR MIN TEMP: 73; 6HR MAX TEMP: 78;  
 

 
 
IAZ062-063-075>077-085>089-095>099-090100-  
SOUTHEAST IOWA  
 
CITY SKY/WX TMP DP RH WIND PRES REMARKS
 
BURLINGTON CLOUDY 74 65 73 N13 29.99F  
6HR MIN TEMP: 72; 6HR MAX TEMP: 76;  
 
FAIRFIELD * SUNNY 75 61 60 N9 30.02S  
FORT MADISON * CLOUDY 73 68 83 N7 30.00S  
KEOKUK * CLOUDY 75 70 83 N7 29.99S  
OTTUMWA MOSUNNY 78 61 55 NE12 30.02S HX 80  
6HR MIN TEMP: 77; 6HR MAX TEMP: 82;  
 
WASHINGTON * CLOUDY 73 64 73 N7 30.02R  

 
 
ABBREVIATIONS USED IN REMARKS  
TC - TEMPERATURES IN CELSIUS  
WCI - WIND CHILL INDEX  
HX - HEAT INDEX  
VSB - VISIBILITY  

 
 
 
 
CLICK HERE TO GO TO PREVIOUS BULLETINS.

The Nexlab IA Page Main Text Page